Barcelona, Spain

11:19 AM CET on November 19, 2017 (GMT +0100)
El Prat

Weather History for LEBL - November, 2017

Change the Weather History Date:

Saturday, November 11, 2017

  Actual Average Record
Temperature  
Mean Temperature 55 °F -  
Max Temperature 63 °F 58 °F 71 °F (2002)
Min Temperature 47 °F 45 °F 42 °F (2001)
Degree Days  
Heating Degree Days 10    
Growing Degree Days 5 (Base 50)    
Moisture  
Dew Point 43 °F    
Average Humidity 64    
Maximum Humidity 82    
Minimum Humidity 44    
Precipitation  
Precipitation 0.00 in 0.09 in - ()
Sea Level Pressure  
Sea Level Pressure 30.16 in    
Wind  
Wind Speed 10 mph ()    
Max Wind Speed 16 mph    
Max Gust Speed 25 mph    
Visibility 10.7 miles    
Events      
Averages and records for this station are not official NWS values.
T = Trace of Precipitation, MM = Missing Value Source: Averaged Metar Reports

Daily Weather History Graph

Daily Weather History Graph

Search for Another Location

Airport or City:

Trip Planner

Search our weather history database for the weather conditions in past years. The results will help you decide how hot, cold, wet, or windy it might be!

Date:

Astronomy

Nov. 11, 2017 Rise Set
Actual Time 7:35 AM CET 5:35 PM CET
Civil Twilight 7:05 AM CET 6:05 PM CET
Nautical Twilight 6:32 AM CET 6:38 PM CET
Astronomical Twilight 6:00 AM CET 7:10 PM CET
Moon 12:06 AM CET (11/11) 2:15 PM CET (11/11)
Length of Visible Light 10h 59m
Length of Day
10h 00m
Last Quarter, 44% of the Moon is Illuminated
Nov 11
Last Quarter
Nov 18
New
Nov 26
First Quarter
Dec 3
Full
Dec 10
Last Quarter

Hourly Weather History & Observations

Time (CET) Temp. Dew Point Humidity Pressure Visibility Wind Dir Wind Speed Gust Speed Precip Events Conditions
12:00 AM 50.0 °F 39.2 °F 66% 30.21 in 6.2 mi NNW 11.5 mph - N/A   Partly Cloudy
12:30 AM 50.0 °F 39.2 °F 66% 30.21 in - NNW 11.5 mph - N/A   Clear
1:00 AM 50.0 °F 39.2 °F 66% 30.21 in 6.2 mi NNW 12.7 mph - N/A   Partly Cloudy
1:30 AM 50.0 °F 39.2 °F 66% 30.18 in 6.2 mi NNW 16.1 mph - N/A   Partly Cloudy
2:00 AM 48.2 °F 39.2 °F 71% 30.18 in 6.2 mi NNW 12.7 mph - N/A   Partly Cloudy
2:30 AM 48.2 °F 39.2 °F 71% 30.18 in 6.2 mi NW 15.0 mph - N/A   Partly Cloudy
3:00 AM 49 °F 39 °F 59% 30.19 in 14 mi North 9.2 mph - -  
3:00 AM 48.2 °F 39.2 °F 71% 30.18 in 6.2 mi NW 12.7 mph - N/A   Partly Cloudy
3:30 AM 48.2 °F 39.2 °F 71% 30.18 in 6.2 mi NW 12.7 mph - N/A   Partly Cloudy
4:00 AM 49 °F 39 °F 59% 30.18 in 16 mi North 12.7 mph - -   Mostly Cloudy
4:00 AM 48.2 °F 39.2 °F 71% 30.15 in 6.2 mi NW 12.7 mph - N/A   Partly Cloudy
4:30 AM 50.0 °F 39.2 °F 66% 30.15 in 6.2 mi NW 11.5 mph - N/A   Partly Cloudy
5:00 AM 49 °F 40 °F 61% 30.18 in 17 mi North 13.8 mph - -  
5:30 AM 48.2 °F 39.2 °F 71% 30.15 in 6.2 mi NW 9.2 mph - N/A   Partly Cloudy
6:00 AM 49 °F 40 °F 61% 30.18 in 19 mi North 12.7 mph - -  
6:00 AM 48.2 °F 39.2 °F 71% 30.15 in 6.2 mi NW 10.4 mph - N/A   Partly Cloudy
6:30 AM 48.2 °F 39.2 °F 71% 30.18 in 6.2 mi NW 6.9 mph - N/A   Partly Cloudy
7:00 AM 48 °F 40 °F 64% 30.19 in 16 mi North 10.4 mph - -   Scattered Clouds
7:00 AM 48.2 °F 39.2 °F 71% 30.18 in 6.2 mi NNW 8.1 mph - N/A   Partly Cloudy
7:30 AM 48.2 °F 39.2 °F 71% 30.18 in 6.2 mi NNW 8.1 mph - N/A   Partly Cloudy
8:00 AM 49 °F 40 °F 64% 30.19 in 16 mi North 10.4 mph - -  
8:00 AM 48.2 °F 39.2 °F 71% 30.18 in 6.2 mi NW 10.4 mph - N/A   Partly Cloudy
8:30 AM 50.0 °F 41.0 °F 71% 30.18 in 6.2 mi NNW 12.7 mph - N/A   Partly Cloudy
9:00 AM 53 °F 42 °F 55% 30.19 in 19 mi North 13.8 mph - -  
9:00 AM 51.8 °F 41.0 °F 67% 30.18 in - NW 12.7 mph 24.2 mph N/A   Clear
9:30 AM 53.6 °F 41.0 °F 62% 30.18 in - North 11.5 mph - N/A   Clear
10:00 AM 54 °F 42 °F 55% 30.19 in 34 mi North 11.5 mph - -   Mostly Cloudy
10:00 AM 53.6 °F 41.0 °F 62% 30.18 in - NW 15.0 mph - N/A   Clear
10:30 AM 51.8 °F 42.8 °F 71% 30.18 in - NNW 12.7 mph 24.2 mph N/A   Clear
11:00 AM 54 °F 43 °F 55% 30.20 in 13 mi NNE 8.1 mph - -  
11:00 AM 53.6 °F 42.8 °F 67% 30.18 in - NW 9.2 mph - N/A   Clear
11:30 AM 55.4 °F 42.8 °F 63% 30.18 in - NNW 11.5 mph - N/A   Clear
12:00 PM 57 °F 42 °F 47% 30.19 in 11 mi North 11.5 mph - -  
12:00 PM 55.4 °F 41.0 °F 58% 30.18 in - NNW 13.8 mph 25.3 mph N/A   Clear
12:30 PM 57.2 °F 42.8 °F 59% 30.15 in - NW 11.5 mph 25.3 mph N/A   Clear
1:00 PM 59 °F 43 °F 45% 30.17 in 34 mi North 10.4 mph - -   Mostly Cloudy
1:00 PM 57.2 °F 42.8 °F 59% 30.15 in - NW 8.1 mph - N/A   Clear
1:30 PM 59.0 °F 42.8 °F 55% 30.15 in - NNW 10.4 mph - N/A   Clear
2:00 PM 60 °F 44 °F 44% 30.15 in 15 mi North 8.1 mph - -  
2:00 PM 59.0 °F 44.6 °F 59% 30.15 in - NNW 9.2 mph - N/A   Clear
2:30 PM 59.0 °F 44.6 °F 59% 30.15 in - NW 9.2 mph - N/A   Clear
3:00 PM 62 °F 46 °F 44% 30.15 in 10 mi North 6.9 mph - -  
3:00 PM 60.8 °F 44.6 °F 55% 30.12 in - NW 8.1 mph - N/A   Clear
3:30 PM 60.8 °F 46.4 °F 59% 30.12 in - NNW 6.9 mph - N/A   Clear
4:00 PM 62 °F 47 °F 46% 30.14 in 34 mi North 8.1 mph - -   Partly Cloudy
4:00 PM 60.8 °F 46.4 °F 59% 30.12 in - NW 8.1 mph - N/A   Clear
4:30 PM 60.8 °F 46.4 °F 59% 30.12 in - NW 4.6 mph - N/A   Clear
5:00 PM 63 °F 47 °F 46% 30.14 in 19 mi North 3.5 mph - -  
5:00 PM 60.8 °F 46.4 °F 59% 30.12 in - NW 3.5 mph - N/A   Clear
5:30 PM 60.8 °F 46.4 °F 59% 30.12 in - Variable 1.2 mph - N/A   Clear
6:00 PM 62 °F 49 °F 53% 30.14 in 19 mi South 5.8 mph - -  
6:00 PM 60.8 °F 48.2 °F 63% 30.12 in - South 2.3 mph - N/A   Clear
6:30 PM 55.4 °F 46.4 °F 72% 30.12 in - Variable 1.2 mph - N/A   Clear
7:00 PM 53.6 °F 48.2 °F 82% 30.12 in - NW 4.6 mph - N/A   Clear
7:30 PM 55.4 °F 46.4 °F 72% 30.12 in - North 1.2 mph - N/A   Clear
8:00 PM 55.4 °F 48.2 °F 77% 30.12 in - North 1.2 mph - N/A   Clear
8:30 PM 53.6 °F 46.4 °F 77% 30.12 in - NNW 4.6 mph - N/A   Clear
9:00 PM 53.6 °F 46.4 °F 77% 30.12 in - NNW 4.6 mph - N/A   Clear
9:30 PM 51.8 °F 46.4 °F 82% 30.12 in - North 6.9 mph - N/A   Clear
10:00 PM 51.8 °F 46.4 °F 82% 30.12 in - NW 3.5 mph - N/A   Clear
10:30 PM 53.6 °F 46.4 °F 77% 30.12 in - North 8.1 mph - N/A   Clear
11:00 PM 54 °F 47 °F 68% 30.12 in 17 mi North 8.1 mph - -  
11:00 PM 53.6 °F 46.4 °F 77% 30.09 in - NW 5.8 mph - N/A   Clear
11:30 PM 55.4 °F 46.4 °F 72% 30.09 in - North 9.2 mph - N/A   Clear